{"data":{"norad_id":69037,"intl_designator":"2026-101N","name":"STARLINK-37608","alt_names":[],"object_type":"PAYLOAD","status":"ACTIVE","operator":null,"country":"US","launch_date":"2026-05-06","launch_site_code":"AFWTR","launch_vehicle":null,"mission":null,"orbit_class":"UNKNOWN","rcs_meters":null,"size_class":null,"mass_kg":null,"dimensions":null,"purposes":["comms"],"wikipedia_slug":null,"has_3d_model":false,"image_url":null,"decayed_at":null,"tle_current":{"epoch":"2026-09-19T08:06:50.021280Z","epoch_age_seconds":123699,"freshness":"FRESH","line1":"1 69037U 26101N   26262.33807895  .00013978  00000+0  43455-3 0  9997","line2":"2 69037  97.2851 115.8834 0001903  93.5111 266.6349 15.33441164 21003","mean_motion":15.33441164,"eccentricity":0.0001903,"inclination_deg":97.2851,"raan_deg":115.8834,"arg_perigee_deg":93.5111,"mean_anomaly_deg":266.6349,"bstar":0.00043455,"rev_number":2100,"period_min":93.906439569141,"perigee_km":464.25223322992,"apogee_km":466.85694224822,"semimajor_km":6843.6915877391,"source":"CELESTRAK","updated_at":"2026-09-20T09:00:44.060350Z"}}}